[[{"header":{"parameterUnit":"m.s-1","parameterCategory":1,"la1":30.2991,"la2":30.254,"lo1":-89.0895,"lo2":-89.0444,"dy":0.0017,"dx":0.0017,"nx":28,"ny":28,"refTime":"2024-10-12T03:00:00:Z","depth":0,"parameterNumber":2,"parameterNumberName":"U-component_of_WINDS"},"data":[0,0,0,0,0,0,0,0,0,0,0,0,0,0,0,0,0,0,0,0,0,0,0,0,0,0,0,0,0,0,0,0,0,0,0,0,0,0,0,0,0,0,0,0,0,0,0,0,0,0,0,0,0,0,0,0,0,0,-1.127,-1.1271,0,-1.1352,-1.1352,-1.1353,-1.1363,-1.1362,-1.1361,-1.136,-1.1443,-1.1445,-1.1448,0,0,0,0,0,0,0,0,0,0,0,0,0,-1.1122,-1.1125,-1.127,-1.1271,-1.1272,-1.1351,-1.1353,-1.1354,-1.1363,-1.1362,-1.1361,-1.136,-1.1442,-1.1445,-1.1449,0,0,0,0,0,0,0,0,0,0,0,0,0,-1.1193,-1.1126,-1.127,-1.1286,-1.1289,-1.1351,-1.1353,-1.1354,-1.1363,-1.1362,-1.1361,-1.136,-1.144,-1.1445,-1.1449,-1.15,0,0,-1.1462,-1.1464,0,0,0,0,0,0,0,0,-1.1189,-1.1199,-1.1283,-1.1285,-1.1288,-1.1346,-1.133,-1.1403,-1.1363,-1.1335,-1.136,-1.1359,-1.1411,-1.1418,-1.1436,-1.1504,-1.1508,-1.1463,-1.1466,-1.1467,-1.1469,0,0,0,0,0,0,0,-1.1184,-1.1195,-1.1302,-1.1284,-1.1287,-1.1289,-1.1298,-1.1344,-1.1379,-1.1337,-1.1338,-1.1348,-1.1412,-1.1432,-1.1438,-1.1509,-1.1463,-1.1467,-1.1469,-1.1471,-1.1625,-1.1626,0,0,0,0,0,0,-1.1176,-1.1191,-1.13,-1.1305,-1.1235,-1.1293,-1.1303,-1.1328,-1.1378,-1.1385,-1.1349,-1.1348,-1.1425,-1.1433,-1.1441,-1.1505,-1.1467,-1.1472,-1.1474,-1.1623,-1.1625,-1.1627,0,0,0,0,0,0,-1.1173,-1.1186,-1.1296,-1.1248,-1.1262,-1.1297,-1.1326,-1.1331,-1.135,-1.1387,-1.1393,-1.1362,-1.1424,-1.1435,-1.1486,-1.1508,-1.1474,-1.1478,-1.1622,-1.1624,-1.1626,-1.1633,0,0,0,0,0,0,-1.1169,-1.1185,-1.1204,-1.1249,-1.1265,-1.134,-1.1327,-1.1333,-1.1358,-1.1357,-1.1401,-1.1407,-1.1424,-1.1479,-1.149,-1.1513,-1.1481,-1.162,-1.1623,-1.1625,-1.163,-1.1635,-1.1638,0,0,0,0,0,-1.1163,-1.1202,-1.1205,-1.1218,-1.129,-1.1341,-1.1351,-1.137,-1.1359,-1.138,-1.1404,-1.1406,-1.1504,-1.1484,-1.1497,-1.1521,-1.1619,-1.1622,-1.1625,-1.1629,-1.1634,-1.1638,0,0,0,0,0,0,-1.1159,-1.1208,-1.1212,-1.1267,-1.13,-1.1343,-1.1369,-1.1374,-1.141,-1.1408,-1.143,-1.144,-1.149,-1.1511,-1.1489,-1.1574,-1.156,-1.1566,-1.1559,-1.1564,-1.1568,-1.1561,-1.1485,0,0,0,0,0,-1.1165,-1.1202,-1.1243,-1.1287,-1.1304,-1.1334,-1.1356,-1.1368,-1.1403,-1.1417,-1.1445,-1.1478,-1.1517,-1.1542,-1.1579,-1.1634,-1.1644,-1.1657,-1.1661,-1.1664,-1.1668,-1.17,-1.1706,-1.1637,-1.1637,-1.1637,0,0,-1.1176,-1.1208,-1.123,-1.1287,-1.1314,-1.1353,-1.1345,-1.1386,-1.1414,-1.1423,-1.1473,-1.1495,-1.1534,-1.1588,-1.1613,-1.1606,-1.169,-1.1668,-1.167,-1.1673,-1.1704,-1.171,-1.1716,-1.164,-1.1639,-1.1639,0,0,-1.1216,-1.1244,-1.1284,-1.1312,-1.1354,-1.1374,-1.1383,-1.1426,-1.1441,-1.1492,-1.15,-1.1534,-1.16,-1.1628,-1.165,-1.1703,-1.1707,-1.1715,-1.1735,-1.1765,-1.177,-1.1775,-1.1794,-1.1801,-1.172,-1.172,-1.172,0,-1.1225,-1.1283,-1.1304,-1.1345,-1.137,-1.1381,-1.1422,-1.1448,-1.1499,-1.1517,-1.1509,-1.1593,-1.162,-1.168,-1.1693,-1.1711,-1.1723,-1.1709,-1.1768,-1.1773,-1.1778,-1.1796,-1.1803,-1.172,-1.172,-1.172,-1.172,0,-1.1292,-1.1333,-1.136,-1.1411,-1.1439,-1.148,-1.1507,-1.1533,-1.1543,-1.1564,-1.1616,-1.1649,-1.1694,-1.1709,-1.1719,-1.1772,-1.1767,-1.1764,-1.175,-1.1785,-1.1802,-1.181,-1.1721,-1.1721,-1.1721,-1.1721,0,0,-1.133,-1.1393,-1.1403,-1.1426,-1.1474,-1.1505,-1.1547,-1.1592,-1.1614,-1.1649,-1.1685,-1.1741,-1.1739,-1.1765,-1.1778,-1.1805,-1.1845,-1.1798,-1.18,-1.1806,-1.1905,-1.1907,-1.1915,-1.1848,-1.185,-1.1851,-1.1902,0,-1.1376,-1.1451,-1.1471,-1.1534,-1.1572,-1.1584,-1.1621,-1.1654,-1.1675,-1.171,-1.1733,-1.1772,-1.1766,-1.1782,-1.1809,-1.1834,-1.1865,-1.1831,-1.1881,-1.1882,-1.187,-1.1924,-1.1926,-1.1972,-1.1909,-1.191,-1.1911,0,-1.1438,-1.1476,-1.1543,-1.1587,-1.1604,-1.1636,-1.1679,-1.1713,-1.1751,-1.1765,-1.1795,-1.1806,-1.185,-1.1835,-1.1896,-1.1872,-1.1894,-1.191,-1.1912,-1.1916,-1.1898,-1.193,-1.1988,-1.1995,-1.1922,-1.1921,-1.1921,0,-1.1459,-1.1527,-1.1576,-1.1596,-1.1649,-1.1671,-1.1694,-1.1731,-1.1757,-1.1795,-1.1812,-1.1854,-1.1877,-1.191,-1.1932,-1.1919,-1.1992,-1.1978,-1.2004,-1.2003,-1.2017,-1.2016,-1.2079,-1.2033,-1.2033,-1.2033,-1.2032,0,-1.1508,-1.1548,-1.1587,-1.1617,-1.1663,-1.1687,-1.1732,-1.1755,-1.1788,-1.1823,-1.1836,-1.1869,-1.1897,-1.1933,-1.1951,-1.2,-1.201,-1.2022,-1.2026,-1.202,-1.2019,-1.2034,-1.2031,-1.2034,-1.2034,-1.2034,-1.2033,0,-1.1538,-1.1565,-1.162,-1.1666,-1.1678,-1.171,-1.1749,-1.1779,-1.1801,-1.1846,-1.1857,-1.1892,-1.1936,-1.1962,-1.2017,-1.2029,-1.2082,-1.2085,-1.2069,-1.2071,-1.2095,-1.2092,-1.217,-1.2181,-1.2128,-1.2128,-1.2129,0,-1.1566,-1.1598,-1.1648,-1.1672,-1.1696,-1.1735,-1.1762,-1.1788,-1.1815,-1.1862,-1.1887,-1.1931,-1.1968,-1.2038,-1.2068,-1.211,-1.2114,-1.2138,-1.212,-1.2114,-1.2114,-1.2112,-1.2115,-1.2141,-1.2141,-1.2142,-1.2142,0,-1.1614,-1.1626,-1.1665,-1.1709,-1.1741,-1.1776,-1.1812,-1.1831,-1.1863,-1.1893,-1.1938,-1.1967,-1.2024,-1.2068,-1.2114,-1.2137,-1.2145,-1.2148,-1.2156,-1.215,-1.2139,-1.2145,-1.2077,-1.2146,-1.2145,-1.2145,-1.2145,-1.2145,-1.1644,-1.1673,-1.1713,-1.1756,-1.1785,-1.1818,-1.1849,-1.1876,-1.1914,-1.1963,-1.1976,-1.2023,-1.2062,-1.2124,-1.2149,-1.2187,-1.2183,-1.2195,-1.2197,-1.22,-1.22,-1.2134,-1.2195,-1.2195,-1.2195,-1.2195,-1.2195,0,-1.1692,-1.1718,-1.1758,-1.1808,-1.1841,-1.1847,-1.1887,-1.1915,-1.1957,-1.1993,-1.2029,-1.2082,-1.2126,-1.216,-1.2205,-1.2228,-1.2233,-1.2239,-1.2237,-1.2243,-1.2201,-1.219,-1.2235,-1.2235,-1.2235,-1.2235,-1.2235,-1.2235,-1.172,-1.177,-1.1788,-1.1852,-1.1879,-1.1926,-1.1949,-1.1979,-1.2008,-1.2067,-1.2103,-1.2126,-1.2161,-1.2209,-1.225,-1.2259,-1.2274,-1.228,-1.2289,-1.225,-1.2245,-1.2241,-1.223,-1.2283,-1.2283,-1.2327,-1.2328,-1.2328]},{"header":{"parameterUnit":"m.s-1","parameterCategory":1,"la1":30.2991,"la2":30.254,"lo1":-89.0895,"lo2":-89.0444,"dy":0.0017,"dx":0.0017,"nx":28,"ny":28,"refTime":"2024-10-12T03:00:00:Z","depth":0,"parameterNumber":3,"parameterNumberName":"V-component_of_WINDS"},"data":[0,0,0,0,0,0,0,0,0,0,0,0,0,0,0,0,0,0,0,0,0,0,0,0,0,0,0,0,0,0,0,0,0,0,0,0,0,0,0,0,0,0,0,0,0,0,0,0,0,0,0,0,0,0,0,0,0,0,-1.7711,-1.7711,0,-1.7745,-1.7746,-1.7746,-1.7745,-1.7745,-1.7745,-1.7744,-1.7778,-1.7779,-1.778,0,0,0,0,0,0,0,0,0,0,0,0,0,-1.7643,-1.7645,-1.7711,-1.7711,-1.7712,-1.7745,-1.7746,-1.7746,-1.7746,-1.7745,-1.7744,-1.7744,-1.7777,-1.7779,-1.7781,0,0,0,0,0,0,0,0,0,0,0,0,0,-1.7675,-1.7645,-1.7711,-1.7716,-1.7716,-1.7745,-1.7746,-1.7746,-1.7746,-1.7745,-1.7744,-1.7744,-1.7777,-1.7779,-1.7781,-1.7807,0,0,-1.7787,-1.7788,0,0,0,0,0,0,0,0,-1.7673,-1.7677,-1.7714,-1.7715,-1.7716,-1.774,-1.7734,-1.7767,-1.7746,-1.7734,-1.7744,-1.7743,-1.7766,-1.7769,-1.7777,-1.7808,-1.781,-1.7787,-1.7788,-1.7789,-1.779,0,0,0,0,0,0,0,-1.7671,-1.7676,-1.7724,-1.7715,-1.7716,-1.7715,-1.7719,-1.774,-1.7754,-1.7735,-1.7735,-1.774,-1.7766,-1.7775,-1.7777,-1.781,-1.7787,-1.7789,-1.779,-1.7791,-1.7865,-1.7866,0,0,0,0,0,0,-1.7668,-1.7674,-1.7723,-1.7725,-1.7692,-1.7717,-1.7721,-1.7733,-1.7753,-1.7756,-1.774,-1.7739,-1.7772,-1.7775,-1.7779,-1.781,-1.7789,-1.7791,-1.7792,-1.7864,-1.7865,-1.7866,0,0,0,0,0,0,-1.7666,-1.7672,-1.7722,-1.77,-1.7706,-1.7719,-1.7733,-1.7734,-1.7743,-1.7757,-1.7759,-1.7747,-1.7771,-1.7776,-1.78,-1.7811,-1.7792,-1.7794,-1.7863,-1.7864,-1.7865,-1.7873,0,0,0,0,0,0,-1.7664,-1.7672,-1.7682,-1.77,-1.7707,-1.7743,-1.7733,-1.7736,-1.7746,-1.7746,-1.7763,-1.7766,-1.7771,-1.7797,-1.7802,-1.7814,-1.7795,-1.7862,-1.7864,-1.7865,-1.7872,-1.7874,-1.7877,0,0,0,0,0,-1.7662,-1.7683,-1.7683,-1.7689,-1.772,-1.7744,-1.7748,-1.7754,-1.7747,-1.7758,-1.7767,-1.7765,-1.7809,-1.7799,-1.7805,-1.7817,-1.7861,-1.7863,-1.7865,-1.7871,-1.7874,-1.7876,0,0,0,0,0,0,-1.7665,-1.7685,-1.7685,-1.7712,-1.7726,-1.7744,-1.7757,-1.7757,-1.7773,-1.7772,-1.7778,-1.7782,-1.7806,-1.7814,-1.7803,-1.7843,-1.7834,-1.7837,-1.7837,-1.784,-1.7842,-1.784,-1.7797,0,0,0,0,0,-1.7669,-1.7687,-1.7703,-1.7725,-1.7732,-1.7743,-1.7754,-1.7757,-1.7772,-1.7778,-1.7788,-1.7802,-1.7819,-1.783,-1.7847,-1.7873,-1.7877,-1.7885,-1.7887,-1.7889,-1.7891,-1.7905,-1.7909,-1.7871,-1.7871,-1.7871,0,0,-1.7677,-1.769,-1.7701,-1.7726,-1.7738,-1.7755,-1.7748,-1.7767,-1.778,-1.778,-1.7804,-1.7812,-1.7828,-1.7853,-1.7865,-1.7861,-1.7902,-1.7891,-1.7892,-1.7894,-1.7907,-1.7911,-1.7914,-1.7873,-1.7872,-1.7872,0,0,-1.7701,-1.7713,-1.7732,-1.7744,-1.7761,-1.7769,-1.7773,-1.7791,-1.7796,-1.782,-1.782,-1.7836,-1.7865,-1.7876,-1.7886,-1.7914,-1.7913,-1.7919,-1.7931,-1.7945,-1.7948,-1.795,-1.796,-1.7963,-1.7921,-1.7921,-1.7921,0,-1.7708,-1.7735,-1.7742,-1.7761,-1.7772,-1.7774,-1.7794,-1.7804,-1.7826,-1.7833,-1.7829,-1.7865,-1.7876,-1.7904,-1.7911,-1.7919,-1.7924,-1.7917,-1.7947,-1.795,-1.7952,-1.7961,-1.7965,-1.7922,-1.7922,-1.7922,-1.7922,0,-1.7744,-1.7762,-1.7776,-1.7797,-1.781,-1.7829,-1.7839,-1.7851,-1.7853,-1.7861,-1.7885,-1.7898,-1.7917,-1.7924,-1.7926,-1.7952,-1.7949,-1.7945,-1.7936,-1.7956,-1.7965,-1.7968,-1.7923,-1.7923,-1.7922,-1.7922,0,0,-1.777,-1.7795,-1.78,-1.7809,-1.7829,-1.7843,-1.7862,-1.7881,-1.7891,-1.7906,-1.7922,-1.7947,-1.7944,-1.7955,-1.7959,-1.7971,-1.7992,-1.7966,-1.7966,-1.797,-1.802,-1.8022,-1.8026,-1.7992,-1.7992,-1.7993,-1.8019,0,-1.7795,-1.7829,-1.7836,-1.7866,-1.7883,-1.7885,-1.7902,-1.7915,-1.7923,-1.7938,-1.7946,-1.7964,-1.7959,-1.7965,-1.7978,-1.7987,-1.8002,-1.7985,-1.8006,-1.8006,-1.8001,-1.8031,-1.8033,-1.8057,-1.8022,-1.8023,-1.8023,0,-1.7829,-1.7845,-1.7876,-1.7893,-1.7901,-1.7916,-1.7934,-1.7949,-1.7964,-1.7968,-1.7981,-1.7983,-1.8003,-1.7994,-1.8021,-1.8009,-1.8018,-1.8024,-1.8025,-1.8026,-1.8015,-1.8033,-1.8064,-1.8068,-1.8029,-1.8028,-1.8028,0,-1.7844,-1.7873,-1.7896,-1.7904,-1.7925,-1.7935,-1.7944,-1.7959,-1.797,-1.7985,-1.7992,-1.801,-1.802,-1.8033,-1.804,-1.8033,-1.8066,-1.8058,-1.807,-1.807,-1.8077,-1.8076,-1.811,-1.8084,-1.8083,-1.8083,-1.8083,0,-1.7871,-1.789,-1.7903,-1.7917,-1.7938,-1.7946,-1.7967,-1.7975,-1.7989,-1.8004,-1.8007,-1.8021,-1.803,-1.8045,-1.8051,-1.8072,-1.8076,-1.808,-1.8081,-1.808,-1.8079,-1.8085,-1.8084,-1.8084,-1.8084,-1.8084,-1.8084,0,-1.7891,-1.79,-1.7925,-1.7943,-1.7948,-1.7963,-1.7977,-1.7991,-1.7999,-1.8018,-1.8023,-1.8035,-1.8053,-1.8062,-1.8085,-1.8088,-1.8112,-1.8113,-1.8107,-1.8107,-1.8119,-1.8118,-1.8158,-1.8163,-1.8134,-1.8134,-1.8134,0,-1.7907,-1.7922,-1.7941,-1.7952,-1.7961,-1.7978,-1.7989,-1.7998,-1.8009,-1.8028,-1.8039,-1.8057,-1.8072,-1.8101,-1.8112,-1.8129,-1.813,-1.8142,-1.8132,-1.813,-1.8129,-1.8128,-1.8129,-1.8144,-1.8144,-1.8145,-1.8145,0,-1.7934,-1.7939,-1.7955,-1.7973,-1.7987,-1.8001,-1.8015,-1.8024,-1.8034,-1.8047,-1.8066,-1.8078,-1.8101,-1.8119,-1.8137,-1.8146,-1.8147,-1.8148,-1.8152,-1.815,-1.8146,-1.8148,-1.8112,-1.8147,-1.8147,-1.8147,-1.8146,-1.8146,-1.7953,-1.7966,-1.7981,-1.8,-1.8011,-1.8025,-1.8038,-1.8048,-1.8064,-1.8084,-1.8087,-1.8107,-1.8122,-1.8147,-1.8156,-1.8172,-1.8169,-1.8174,-1.8175,-1.8176,-1.8177,-1.8144,-1.8175,-1.8175,-1.8175,-1.8175,-1.8175,0,-1.798,-1.799,-1.8007,-1.8027,-1.8041,-1.8041,-1.8057,-1.8069,-1.8087,-1.8101,-1.8116,-1.8137,-1.8155,-1.8167,-1.8185,-1.8195,-1.8196,-1.8199,-1.8198,-1.82,-1.8179,-1.8173,-1.8198,-1.8198,-1.8198,-1.8198,-1.8198,-1.8198,-1.7996,-1.8018,-1.8024,-1.8052,-1.8062,-1.8082,-1.8091,-1.8103,-1.8114,-1.8138,-1.8153,-1.8161,-1.8174,-1.8193,-1.8209,-1.8212,-1.8218,-1.8222,-1.8225,-1.8204,-1.8202,-1.8199,-1.8195,-1.8223,-1.8223,-1.8245,-1.8245,-1.8246]}]]